This demonstration page uses our WeatherBlox Daily Observations layout. Learn more.

Left ArrowRight Arrow

Hourly Observations for September 8, 2018

Temp ( °F °C ) Dew Point ( °F °C ) Humidity (%) Winds ( mph kmh ) Pressure ( in mb ) Visibility ( mi km ) Precip ( " mm )
12:53 am 00:53 Clear 67 19.4 66 18.9 97 97 N 8 13 30.01 1016 10 16 0.00 0.00
1:53 am 01:53 Partly Cloudy 67 19.4 65 18.3 93 93 N 9 15 30.01 1016 10 16 0.00 0.00
2:53 am 02:53 Mostly Clear 67 19.4 65 18.3 93 93 N 9 15 30.00 1016 10 16 0.00 0.00
3:53 am 03:53 Mostly Cloudy 67 19.4 65 18.3 93 93 N 7 11 29.98 1015 10 16 0.00 0.00
4:53 am 04:53 Clear 67 19.4 65 18.3 93 93 N 7 11 29.96 1015 10 16 0.00 0.00
5:53 am 05:53 Clear 67 19.4 65 18.3 93 93 N 6 9 29.97 1015 10 16 0.00 0.00
6:53 am 06:53 Mostly Clear 67 19.4 65 18.3 93 93 N 7 11 29.97 1015 10 16 0.00 0.00
7:53 am 07:53 Cloudy 67 19.4 65 18.3 93 93 N 6 9 29.99 1016 10 16 0.00 0.00
8:14 am 08:14 Cloudy 67 19.4 65 18.3 93 93 N 8 13 30.00 1016 10 16 0.00 0.00
8:42 am 08:42 Cloudy 68 20 65 18.3 90 90 N 7 11 29.97 1015 10 16 0.00 0.00
8:53 am 08:53 Cloudy 68 20 66 18.9 93 93 N 8 13 30.00 1016 10 16 0.00 0.00
9:53 am 09:53 Sunny 70 21.1 65 18.3 84 84 NNE 8 13 30.00 1016 10 16 0.00 0.00
10:53 am 10:53 Sunny 72 22.2 65 18.3 79 79 NE 9 15 30.00 1016 10 16 0.00 0.00
11:53 am 11:53 Mostly Cloudy 76 24.4 64 17.8 67 67 NE 13 20 30.00 1016 10 16 0.00 0.00
12:53 pm 12:53 Partly Cloudy 78 25.6 64 17.8 62 62 NE 9 15 29.98 1015 10 16 0.00 0.00
1:53 pm 13:53 Cloudy 78 25.6 63 17.2 60 60 NNE 12 19 29.96 1014 10 16 0.00 0.00
2:53 pm 14:53 Mostly Cloudy 77 25 63 17.2 62 62 N 8 13 29.94 1014 10 16 0.00 0.00
3:53 pm 15:53 Mostly Sunny 79 26.1 62 16.7 56 56 NNE 7 11 29.91 1013 10 16 0.00 0.00
4:53 pm 16:53 Partly Cloudy 79 26.1 62 16.7 56 56 N 3 6 29.89 1012 10 16 0.00 0.00
5:53 pm 17:53 Partly Cloudy 81 27.2 62 16.7 53 53 NNE 6 9 29.87 1011 10 16 0.00 0.00
6:53 pm 18:53 Mostly Cloudy 78 25.6 62 16.7 58 58 SE 5 7 29.87 1011 10 16 0.00 0.00
7:53 pm 19:53 Partly Cloudy 76 24.4 64 17.8 67 67 SE 3 6 29.88 1012 10 16 0.00 0.00
8:53 pm 20:53 Partly Cloudy 74 23.3 65 18.3 74 74 SE 6 9 29.89 1012 10 16 0.00 0.00
9:53 pm 21:53 Mostly Clear 72 22.2 67 19.4 84 84 SE 8 13 29.91 1013 10 16 0.00 0.00
10:53 pm 22:53 Clear 70 21.1 66 18.9 87 87 SE 7 11 29.93 1013 10 16 0.00 0.00
11:53 pm 23:53 Clear 68 20 66 18.9 93 93 SE 5 7 29.92 1013 10 16 0.00 0.00

Powered by AerisWeather